www.pogodaiklimat.ru

Погода и климат >> Архив погоды >> Индонезия >> Серанг


ПОГОДА в Серанге

  • Прогноз погоды в Серанге
  • Монитор погоды в Серанге

АРХИВ ПОГОДЫ в Серанге

Время (UTC), дата Ветер
(напр.,м/с)
 
Видим.   Явления Облачность Т
(С)
Тd
(С)
f
(%)
Тe
(С)
Тes
(С)
Комфортность P
(гПа)
Po
(гПа)
Тmin
(С)
Tmax
(С)
R
(мм)
R24
(мм)
S
(см)
12 11.06 штиль 0 5000 м мгла 9/6 500 м
[Cu med, cong As op Ci fib]
+28.1 +23.9 78 +39 +39 очень
душно
1009.7 1006.7 +34.0
15 11.06 штиль 0 5000 м мгла 8/5 500 м
[Sc As op Ci fib]
+26.8 +24.6 88 +38 +38 очень
душно
1010.6 1007.6
18 11.06 штиль 0 5000 м мгла 6/4 500 м
[Sc As op Ci fib]
+26.0 +24.4 91 +36 +36 очень
душно
1010.0 1007.0
21 11.06 штиль 0 5000 м мгла 8/5 500 м
[Sc As op Ci fib]
+25.4 +24.3 94 +35 +35 очень
душно
1008.8 1005.8
00 12.06 штиль 0 5000 м мгла 6/4 500 м
[Sc As op Ci fib]
+25.4 +23.7 90 +35 +35 очень
душно
1010.3 1007.3 +24.4
03 12.06 штиль 0 5000 м мгла 5/4 500 м
[Cu med, cong As trans Ci fib]
+32.1 +24.3 63 +44 +54 опасность
перегрева
1011.3 1008.3
06 12.06 ЮЗ 1 5000 м мгла 8/6 500 м
[Cu med, cong As op Ci fib]
+32.7 +24.5 62 +45 +51 опасность
перегрева
1009.1 1006.1
09 12.06 З 1 5000 м мгла 9/5 500 м
[Cu med, cong As op Ci fib]
+30.2 +24.8 73 +43 +44 опасность
перегрева
1007.9 1004.9
12 12.06 штиль 0 5000 м мгла 9/5 500 м
[Cu med, cong As op Ci fib]
+28.6 +24.5 79 +41 +41 опасность
перегрева
1009.5 1006.5 +33.6
15 12.06 штиль 0 5000 м мгла 8/4 500 м
[Sc As op Ci fib]
+27.2 +24.8 87 +39 +39 очень
душно
1011.3 1008.3
18 12.06 штиль 0 5000 м мгла 8/4 500 м
[Sc As op Ci fib]
+26.4 +24.5 89 +37 +37 очень
душно
1010.1 1007.1
21 12.06 штиль 0 5000 м мгла 9/4 500 м
[Sc As op Ci fib]
+25.8 +24.2 91 +36 +36 очень
душно
1009.0 1006.0
00 13.06 штиль 0 5000 м мгла 8/4 500 м
[Sc Ac trans Ci fib]
+25.8 +24.2 91 +36 +36 очень
душно
1010.5 1007.5 +23.8
03 13.06 штиль 0 5000 м мгла 8/5 500 м
[Cu med, cong As op Ci fib]
+31.6 +24.9 68 +45 +51 опасность
перегрева
1010.6 1007.6
06 13.06 С 2 5000 м мгла 9/5 500 м
[Cu med, cong As op Ci fib]
+32.8 +25.0 64 +47 +52 опасность
перегрева
1008.4 1005.4
09 13.06 С 3 5000 м мгла 8/5 500 м
[Cu med, cong As op Ci fib]
+31.0 +24.5 68 +43 +44 опасность
перегрева
1007.5 1004.5
12 13.06 С 1 5000 м мгла 8/4 500 м
[Sc As op Ci fib]
+29.4 +25.4 79 +43 +43 опасность
перегрева
1009.6 1006.6 +33.4
15 13.06 штиль 0 5000 м мгла 8/4 500 м
[Sc As op Ci fib]
+28.0 +25.6 87 +41 +41 опасность
перегрева
1011.1 1008.1
18 13.06 штиль 0 5000 м мгла 6/5 500 м
[Sc As op Ci fib]
+26.0 +24.6 92 +37 +37 очень
душно
1009.6 1006.6
21 13.06 штиль 0 5000 м мгла 6/4 500 м
[Sc As op Ci fib]
+25.6 +24.5 94 +36 +36 очень
душно
1008.3 1005.3
00 14.06 штиль 0 5000 м мгла 9/5 500 м
[Sc As op Ci fib]
+25.8 +24.7 94 +37 +37 очень
душно
1009.7 1006.7 +25.6
03 14.06 ЮВ 1 5000 м мгла 8/6 500 м
[Cu med, cong As op Ci fib]
+30.8 +23.7 66 +42 +46 опасность
перегрева
1010.5 1007.5
06 14.06 З 2 5000 м мгла 9/8 500 м
[Cu med, cong As op Ci fib]
+32.4 +25.5 67 +47 +49 опасность
перегрева
1008.2 1005.2
09 14.06 штиль 0 5000 м мгла {гроза, дождь} 9/6 500 м
[Cu med, cong As op Ci fib]
+27.8 +24.5 82 +39 +40 очень
душно
1006.9 1006.3 2
12 14.06 штиль 0 5000 м мгла {гроза, дождь} 9/5 500 м
[Sc As op Ci fib]
+27.6 +25.5 88 +40 +40 очень
душно
1008.4 1005.4 +33.2 2
15 14.06 штиль 0 5000 м мгла 8/4 500 м
[Sc As op Ci fib]
+26.4 +25.0 92 +38 +38 очень
душно
1010.4 1007.4
18 14.06 штиль 0 5000 м мгла 9/5 500 м
[Sc As op Ci fib]
+25.8 +24.4 92 +36 +36 очень
душно
1009.5 1006.5
21 14.06 штиль 0 5000 м мгла 9/5 500 м
[Sc As op Ci fib]
+25.8 +24.7 94 +37 +37 очень
душно
1008.7 1005.7
00 15.06 штиль 0 5000 м мгла 8/5 500 м
[Sc As op Ci fib]
+26.2 +24.8 92 +37 +38 очень
душно
1009.9 1006.9 +25.6 2
03 15.06 В 1 5000 м мгла 8/5 500 м
[Sc As op Ci fib]
+31.0 +24.8 70 +44 +50 опасность
перегрева
1010.8 1007.8
06 15.06 С 3 5000 м мгла 9/6 500 м
[Cu med, cong As op Ci fib]
+34.0 +24.3 57 +46 +50 опасность
перегрева
1007.8 1005.8
09 15.06 З 2 5000 м в посл. час гроза {дождь} 9/6 500 м
[Cu med, cong As op Ci fib]
+29.6 +25.9 81 +44 +45 опасность
перегрева
1007.0 1004.0 0.5
12 15.06 штиль 0 5000 м мгла {гроза, дождь} 10/6 500 м
[Sc As op Ci fib]
+27.8 +24.8 84 +40 +40 очень
душно
1008.7 1005.7 +34.0 0.5
15 15.06 штиль 0 5000 м мгла 9/5 500 м
[Sc As op Ci fib]
+26.8 +24.9 89 +38 +38 очень
душно
1010.4 1007.4
18 15.06 штиль 0 5000 м в посл. час гроза {дождь} 10/8 500 м
[Sc As op Ci fib]
+25.6 +24.2 92 +35 +35 очень
душно
1010.1 1007.1 0.0
21 15.06 штиль 0 5000 м мгла 9/5 500 м
[Sc As op Ci fib]
+25.6 +24.2 92 +35 +35 очень
душно
1009.0 1006.0
00 16.06 штиль 0 5000 м мгла 8/4 500 м
[Sc As op Ci fib]
+25.4 +24.3 94 +35 +36 очень
душно
1010.8 1007.8 +25.0 0.5
03 16.06 СВ 2 5000 м мгла 6/4 500 м
[Cu med, cong As op Ci fib]
+30.0 +24.9 74 +43 +50 опасность
перегрева
1011.4 1008.4
06 16.06 штиль 0 5000 м мгла 9/5 500 м
[Cu med, cong As op Ci fib]
+32.2 +25.2 67 +46 +53 опасность
перегрева
1009.4 1006.4
09 16.06 СВ 3 5000 м мгла 9/5 500 м
[Cu med, cong As op Ci fib]
+32.0 +24.2 63 +44 +45 опасность
перегрева
1008.0 1005.0
12 16.06 штиль 0 5000 м мгла 9/6 500 м
[Sc As op Ci fib]
+28.8 +25.0 80 +42 +42 опасность
перегрева
1010.0 1007.0 +33.2
15 16.06 штиль 0 5000 м мгла {гроза, дождь} 9/5 500 м
[Sc As op Ci fib]
+25.4 +24.6 95 +36 +36 очень
душно
1011.0 1008.0 3
18 16.06 штиль 0 5000 м мгла {гроза, дождь} 8/5 500 м
[Sc As op Ci fib]
+24.6 +23.5 94 +33 +33 очень
душно
1010.2 1007.2 3
21 16.06 штиль 0 5000 м мгла 8/4 500 м
[Sc As op Ci fib]
+24.3 +23.3 94 +33 +33 очень
душно
1009.0 1006.1
00 17.06 штиль 0 5000 м мгла 8/4 500 м
[Sc As op Ci fib]
+24.8 +24.0 95 +34 +34 очень
душно
1009.9 1006.9 +24.2 3
03 17.06 штиль 0 5000 м мгла 9/5 500 м
[Cu med, cong As op Ci fib]
+30.0 +23.1 67 +40 +45 очень
душно
1010.3 1007.3
06 17.06 С 5 5000 м мгла 9/5 500 м
[Cu med, cong As op Ci fib]
+32.2 +23.2 59 +43 +45 опасность
перегрева
1008.4 1005.4
09 17.06 В 3 5000 м мгла 9/5 500 м
[Sc As op Ci fib]
+30.6 +23.2 65 +41 +42 опасность
перегрева
1007.7 1004.7
12 17.06 штиль 0 5000 м мгла 10/8 500 м
[Sc As op Ci fib]
+28.0 +24.2 80 +39 +39 очень
душно
1009.3 1006.3 +32.2
15 17.06 штиль 0 5000 м мгла 9/5 500 м
[Sc As op Ci fib]
+26.8 +24.3 86 +37 +37 очень
душно
1010.7 1007.8
18 17.06 штиль 0 5000 м мгла 8/4 500 м
[Sc As op Ci fib]
+26.1 +23.5 86 +35 +35 очень
душно
1010.6 1007.6
21 17.06 штиль 0 5000 м мгла 8/4 500 м
[Sc As op Ci fib]
+24.4 +22.7 90 +32 +32 очень
душно
1009.9 1006.9
00 18.06 штиль 0 7000 м 6/3 500 м
[Sc As trans Ci fib]
+24.3 +22.2 88 +32 +32 очень
душно
1010.7 1007.4 +23.8
03 18.06 ЮВ 3 7000 м 4/3 500 м
[Sc As trans Ci fib]
+30.0 +21.6 61 +38 +46 очень
душно
1010.5 1007.5
06 18.06 СВ 4 5000 м мгла 8/6 500 м
[Cu med, cong As trans Ci fib]
+32.8 +22.6 55 +42 +45 опасность
перегрева
1008.7 1005.7
09 18.06 СВ 3 5000 м мгла 8/5 500 м
[Cu med, cong As op Ci fib]
+31.1 +23.1 63 +42 +43 опасность
перегрева
1008.2 1005.2

 

Местоположение метеостанции Серанг (Индонезия): широта -6.12 долгота 106.13 высота над уровнем моря 40 м.

В архиве по умолчанию представлена погода в Серанге за последнюю неделю. Архивные данные за месяц целиком и за предыдущие месяцы, начиная с января 2011 года, Вы можете получить, выбрав интересующий диапазон дат из раскрывающегося списка и нажав кнопку "Ввод!".


*Определитесь, кто Вы:
робот инопланетянин человек

Внимание! Время в таблицах - всемирное. Для получения местного времени необходимо прибавить поправку, которая равна 7 ч.

Смотрите также архив погоды в соседних городах и на ближайших метеорологических станциях:

Погода в Аэропорту Сукарно-Хатта (Индонезия) (58 км)
Погода в Чуруге (Индонезия) (59 км)
Погода в Джакарте (Индонезия) (78 км)
Погода в Джакарта порту (Индонезия) (82 км)
Погода в Цитеко (Индонезия) (109 км)
Погода в Танджунгкаранге (Индонезия) (155 км)
Погода в Бандунге (Индонезия) (182 км)
Погода в Сиребоне (Индонезия) (246 км)
Погода в Тегале (Индонезия) (343 км)
Погода в Чилачапе (Индонезия) (365 км)

Пояснения к столбцам:

Ветер - указаны скорость ветра в м/с - средняя за 10 мин, порывы в срок и между сроками (в фигурных скобках) и направление, откуда дует ветер: С - северный, СВ - северо-восточный, В - восточный, ЮВ - юго-восточный, Ю - южный, ЮЗ - юго-западный, З - западный, СЗ - северо-западный.
Видимость - горизонтальная дальность видимости в метрах или километрах. При видимости от 1 до 10 км при отсутствии осадков обычно наблюдается дымка, при ухудшении видимости до 1 км и менее - туман. В сухую погоду видимость может ухудшаться дымом, пылью или мглою.
Явления - указаны атмосферные явления, наблюдавшиеся в срок или в последний час перед сроком; фигурными скобками обозначены явления, наблюдавшиеся между сроками (за 1-3 часа до срока); квадратными скобками обозначены град или гололедные отложения с указанием их диаметра в мм.
Облачность - указаны через наклонную черту общая и нижняя облачность в баллах и высота нижней границы облаков в метрах; квадратными скобками обозначены формы облаков: Ci - перистые, Cs - перисто-слоистые, Cc - перисто-кучевые, Ac - высококучевые, As - высокослоистые, Sc - слоисто-кучевые, Ns - слоисто-дождевые, Cu - кучевые, Cb - кучево-дождевые. Подробнее классификацию облаков см. в Атласе облаков (PDF).
T - Температура воздуха - температура, измеренная на высоте 2 м над землей.
Td - Температура точки росы - температура, при понижении до которой содержащийся в воздухе водяной пар достигнет насыщения.
f - Относительная влажность воздуха - влажноcть воздуха, измеренная на высоте 2 м над землей.
Te - Эффективная температура - температура, которую ощущает одетый по сезону человек в тени. Характеристика душности погоды. При расчете учитывается влияние влажности воздуха и скорости ветра на теплоощущения человека.
Tes - Эффективная температура на солнце - температура, которую ощущает человек, с поправкой на солнечный нагрев. Характеристика знойности погоды. Зависит от высоты солнца над горизонтом, облачности и скорости ветра. Ночью, в пасмурную погоду, а также при ветре 12 м/с и более поправка равна нулю.
P - Атмосферное давление - приведенное к уровню моря атмосферное давление.
Po - Атмосферное давление - измеренное на уровне метеостанции атмосферное давление.
Tmin - Минимальная температура - минимум температуры воздуха на высоте 2 м над землей.
Tmax - Максимальная температура - максимум температуры воздуха на высоте 2 м над землей.
R - Количество осадков - Количество выпавших осадков за период времени, мм. При наведении курсора мыши на число - период времени, за который выпало указанное количество осадков.
R24 - Количество осадков - Количество выпавших осадков за 24 часа, мм.
S - Снежный покров - Высота снежного покрова, см. При наведении курсора мыши на число - состояние снежного покрова и степень покрытия местности в баллах.